[ hide orbit diagram ]
For accurate long-term ephemerides, please instead use our Horizons system.This orbit viewer was implemented using two-body methods, and hence should not be used for determining accurate long-term trajectories (over several years or decades) or planetary encounter circumstances.
Orbital Elements at Epoch 2459200.5 (2020-Dec-17.0) TDB
Reference: JPL 16 (heliocentric ecliptic J2000)
Element | Value | Uncertainty (1-sigma) | Units |
e | .2316529744398876 | 8.0878e-08 | |
a | 2.722780630261168 | 3.1147e-08 | au |
q | 2.092040398513857 | 2.174e-07 | au |
i | 12.48988231402447 | 6.3244e-06 | deg |
node | 285.8732122668378 | 3.5094e-05 | deg |
peri | 14.16057095592393 | 3.8958e-05 | deg |
M | 99.11595601771947 | 2.206e-05 | deg |
tp | 2458748.687253554825 (2019-Sep-22.18725355) | 9.6862e-05 | TDB |
period | 1641.033343725048 4.49 | 2.8159e-05 7.71e-08 | d yr |
n | .2193739702953393 | 3.7643e-09 | deg/d |
Q | 3.35352086200848 | 3.8362e-08 | au |
|
| | Orbit Determination Parameters
Additional Information
|
[ show covariance matrix ]
Physical Parameter Table
Parameter |
Symbol |
Value |
Units |
Sigma |
Reference |
Notes |
absolute magnitude |
H |
16.0 |
|
n/a |
MPO440579 |
|
diameter |
diameter |
4.081 |
km |
0.942 |
urn:nasa:pds:neowise_diameters_albedos::2.0[mainbelt] (http://adsabs.harvard.edu/abs/2016AJ....152...63N) |
|
geometric albedo |
albedo |
0.035 |
|
0.021 |
urn:nasa:pds:neowise_diameters_albedos::2.0[mainbelt] (http://adsabs.harvard.edu/abs/2016AJ....152...63N) |
|
|
351839 (2006 QV110) Discovered 2006-Aug-30 by Lowe, A. at Mayhill |
Reference: 20130127/Numbers.arc | Last Updated: 2013-01-31 |
|
[ show close-approach data ]
|